Weather in Kisangani

Democratic Republic of the Congo     0°32′04″N   25°11′13″E
temp.,
°C
wind,
m/s
gust,
m/s
humid.,
%
clouds,
%
prec.,
mm/h
press.,
hPa
HPBL,
m
4 july, mon
mon401:00+21nne11825 0.0 101211
04:00+21n118639 0.0 101311
07:00+24nne1274100 0.0 1014189
10:00+31se12475 0.0 10141211
13:00+34sse123689 0.0 10102769
16:00+29sw145595 0.0 1010276
19:00+25ese016160 0.0 101111
22:00+23ne117177 0.0 101211
5 july, tue
tue501:00+21n118143 0.0 101111
04:00+21nne11877 0.0 101223
07:00+24ne13725 0.0 1013220
10:00+32ese12462 0.0 10131231
13:00+35se12330 0.0 10102426
16:00+33ese12395 0.0 1008165
19:00+25e11629 0.0 101112
22:00+23nne00685 0.0 101211
6 july, wed
wed601:00+22n11709 0.0 101017
04:00+21nw017322 0.0 101111
07:00+24nnw12650 0.0 1013201
10:00+32sw00420 0.0 10131120
13:00+35sw11324 0.0 10102247
16:00+33e013713 0.0 1008155
19:00+26ne115820 0.0 101011
22:00+25ssw11615 0.0 101112
7 july, thu
thu701:00+23nnw116622 0.0 101011
04:00+22wsw00735 0.0 101111
07:00+25n12653 0.0 1013208
10:00+33nnw11400 0.0 10121043
13:00+36s13285 0.0 10092766
16:00+35se113254 0.0 1007106
19:00+28ese114766 0.0 100913
22:00+25nnw11572 0.0 101111
8 july, fri
fri801:00+23w00643 0.0 101011
04:00+22nnw116814 0.0 101111
07:00+25n136292 0.0 1013202
10:00+33nnw124126 0.0 10131326
13:00+36nnw113265 0.0 10092457
16:00+34ene123361 0.0 1007346
19:00+28sse114976 0.0 100911
22:00+26n145587 0.0 101183